New York, NY

3:54 PM EST on November 21, 2019 (GMT -0500)
La Guardia

Weather History for KLGA - August, 2019

Change the Weather History Date:

Saturday, August 17, 2019

  Actual Average Record
Temperature  
Mean Temperature 80 °F 76 °F  
Max Temperature 86 °F 84 °F 94 °F (1944)
Min Temperature 73 °F 69 °F 58 °F (1979)
Degree Days  
Heating Degree Days 0 0  
Month to date heating degree days 0 0  
Since 1 June heating degree days 4 16  
Since 1 July heating degree days 0 0  
Cooling Degree Days 15 11  
Month to date cooling degree days 237 207  
Year to date cooling degree days 1062 889  
Since 1 June cooling degree days 1000 823  
Growing Degree Days 30 (Base 50)    
Moisture  
Dew Point 70 °F    
Average Humidity 74    
Maximum Humidity 87    
Minimum Humidity 61    
Precipitation  
Precipitation T in 0.13 in 3.54 in (1998)
Month to date precipitation 0.86 2.38  
Year to date precipitation 33.56 28.51  
Snow  
Snow 0.00 in 0.00 in - ()
Month to date snowfall 0.0 0.0  
Since 1 July snowfall 0.0 0.0  
Snow Depth 0.00 in    
Sea Level Pressure  
Sea Level Pressure 30.00 in    
Wind  
Wind Speed 9 mph (ENE)    
Max Wind Speed 15 mph    
Max Gust Speed 20 mph    
Visibility 10 miles    
Events Rain    
T = Trace of Precipitation, MM = Missing Value Source: NWS Daily Summary

Daily Weather History Graph

Daily Weather History Graph

Search for Another Location

Airport or City:

Astronomy

Aug. 17, 2019 Rise Set
Actual Time 6:07 AM EDT 7:51 PM EDT
Civil Twilight 5:38 AM EDT 8:20 PM EDT
Nautical Twilight 5:02 AM EDT 8:55 PM EDT
Astronomical Twilight 4:24 AM EDT 9:33 PM EDT
Moon 9:17 PM EDT (8/17) 7:53 AM EDT (8/17)
Length of Visible Light 14h 42m
Length of Day
13h 43m
Waning Gibbous, 96% of the Moon is Illuminated
Aug 17
Waning Gibbous
Aug 23
Last Quarter
Aug 30
New
Sep 5
First Quarter
Sep 14
Full

Hourly Weather History & Observations

Time (EDT) Temp. Heat Index Dew Point Humidity Pressure Visibility Wind Dir Wind Speed Gust Speed Precip Events Conditions
12:16 AM 75.0 °F - 69.1 °F 82% 30.03 in 10.0 mi SE 8.1 mph - 0.00 in Rain Light Rain
12:51 AM 75.0 °F - 69.1 °F 82% 30.03 in 10.0 mi East 5.8 mph - 0.00 in   Overcast
1:51 AM 75.0 °F - 70.0 °F 84% 30.02 in 10.0 mi East 8.1 mph - N/A   Overcast
2:51 AM 73.9 °F - 69.1 °F 85% 30.03 in 10.0 mi NE 5.8 mph - 0.00 in Rain Light Rain
3:51 AM 73.9 °F - 70.0 °F 87% 30.02 in 10.0 mi ENE 8.1 mph - 0.00 in   Overcast
4:51 AM 73.0 °F - 69.1 °F 87% 30.01 in 10.0 mi ENE 6.9 mph - N/A   Overcast
5:22 AM 73.0 °F - 69.1 °F 87% 30.00 in 10.0 mi NE 9.2 mph - N/A   Overcast
5:29 AM 73.0 °F - 69.1 °F 87% 30.01 in 10.0 mi NE 9.2 mph - N/A   Overcast
5:51 AM 73.9 °F - 70.0 °F 87% 30.02 in 10.0 mi NE 10.4 mph - N/A   Overcast
6:25 AM 73.9 °F - 70.0 °F 87% 30.01 in 10.0 mi ENE 9.2 mph - N/A   Overcast
6:51 AM 73.0 °F - 70.0 °F 90% 30.01 in 10.0 mi ENE 8.1 mph - N/A   Mostly Cloudy
7:08 AM 73.9 °F - 70.0 °F 87% 30.01 in 9.0 mi ENE 6.9 mph - N/A   Mostly Cloudy
7:19 AM 73.0 °F - 70.0 °F 90% 30.01 in 8.0 mi ENE 5.8 mph - N/A   Mostly Cloudy
7:51 AM 73.9 °F - 70.0 °F 87% 30.02 in 10.0 mi East 8.1 mph - N/A   Overcast
8:24 AM 73.9 °F - 70.0 °F 87% 30.02 in 10.0 mi ENE 6.9 mph - N/A   Overcast
8:51 AM 75.0 °F - 70.0 °F 84% 30.02 in 10.0 mi NE 8.1 mph - N/A   Overcast
9:51 AM 75.0 °F - 71.1 °F 87% 30.03 in 10.0 mi NE 8.1 mph - N/A   Overcast
10:02 AM 75.9 °F - 71.1 °F 85% 30.02 in 10.0 mi NE 8.1 mph - N/A   Overcast
10:34 AM 77.0 °F - 70.0 °F 79% 30.03 in 10.0 mi ENE 9.2 mph - N/A   Overcast
10:51 AM 78.1 °F - 71.1 °F 79% 30.04 in 10.0 mi NE 9.2 mph - N/A   Mostly Cloudy
11:17 AM 78.1 °F - 71.1 °F 79% 30.03 in 10.0 mi NE 9.2 mph - N/A   Mostly Cloudy
11:51 AM 79.0 °F - 70.0 °F 74% 30.03 in 10.0 mi NE 10.4 mph - N/A   Mostly Cloudy
12:51 PM 80.1 °F 83.2 °F 70.0 °F 71% 30.02 in 10.0 mi NE 10.4 mph - N/A   Scattered Clouds
1:51 PM 82.9 °F 87.0 °F 70.0 °F 65% 30.01 in 10.0 mi NE 11.5 mph - N/A   Scattered Clouds
2:51 PM 84.0 °F 88.4 °F 70.0 °F 63% 29.98 in 10.0 mi NE 12.7 mph - N/A   Scattered Clouds
3:51 PM 82.9 °F 87.0 °F 70.0 °F 65% 29.96 in 10.0 mi NE 11.5 mph - N/A   Mostly Cloudy
4:51 PM 82.9 °F 88.0 °F 72.0 °F 69% 29.95 in 10.0 mi ENE 8.1 mph - N/A   Mostly Cloudy
5:51 PM 84.9 °F 89.4 °F 70.0 °F 61% 29.94 in 10.0 mi SE 9.2 mph - N/A   Mostly Cloudy
6:51 PM 82.9 °F 87.0 °F 70.0 °F 65% 29.94 in 10.0 mi SE 10.4 mph - N/A   Mostly Cloudy
7:51 PM 80.1 °F 83.2 °F 70.0 °F 71% 29.96 in 10.0 mi South 10.4 mph - N/A   Mostly Cloudy
8:51 PM 78.1 °F - 71.1 °F 79% 29.97 in 10.0 mi South 6.9 mph - N/A   Mostly Cloudy
9:51 PM 77.0 °F - 71.1 °F 82% 29.98 in 10.0 mi SSE 8.1 mph - N/A   Scattered Clouds
10:51 PM 77.0 °F - 72.0 °F 84% 29.98 in 10.0 mi SSE 6.9 mph - N/A   Mostly Cloudy
11:23 PM 77.0 °F - 72.0 °F 84% 29.98 in 10.0 mi South 6.9 mph - N/A   Mostly Cloudy
11:51 PM 77.0 °F - 72.0 °F 84% 29.97 in 10.0 mi South 6.9 mph - N/A   Mostly Cloudy